Showing default

OPS 0100 (TRANSIT 15), 2754

Orbit data source: Space-Track

OPS 0100 (TRANSIT 15), 2754 is a payload satellite owned by USN NAVAIR (US) in LEO that was launched on Fri, 14 Apr 1967 UTC via an SCOUT A launch vehicle from the Air Force Western Test Range (AFWTR). Payloads include a variety of satellites, spacecraft, and rockets equipped with specific instruments for various scientific and technological missions. These include communications satellites like Starlink; space stations such as the ISS; scientific satellites like the Hubble; Earth observation satellites from companies like Planet Labs, Umbra, and HawkEye 360; GPS; miniature CubeSats for education and research; and military/defense satellites.

Loading next visibility...
OPS 0100 (TRANSIT 15) details
Identifier
2754, 1967-034A
Orbit
LEO
Last TLE update15 hours ago
Origin
Flag of USUSN NAVAIR (US)
ManufacturerAPL
MissionDefense Navigation
Bus & MotorTRANSIT 5, Unknown motor
Mass~50 kg wet, ~50 kg dry
Launch date (UTC)
1967-04-14 (58 years ago)
Launch vehicle
SCOUT A
Launch site
Air Force Western Test Range (AFWTR)
Object type
Payload
Rocket body
Debris
Shape & HBROct Cyl + 4 Pan + 1 Rod, Unknown HBR
Radar Cross Section7.565 m², Large (>1 m²)

Expand to show TLE details & history

TLE from 15 hours ago
0 OPS 0100 (TRANSIT 15)
1 02754U 67034A   24356.63508083  .00000178  00000-0  23743-3 0  9999
2 02754  90.2117  22.7774 0017654 296.2327 179.0108 13.57229998852515
Epoch: 2024-12-21T15:14Z
Definitive object data (Epoch: 2024-12-21T15:14:30.983Z)
Latitude64.83444°
Longitude-116.08683°
Altitude1,070.156 km
Speed7.316 km/s
True Right ascension13h 32m 54s
True Declination64° 42' 27"
Sunlit
Object was in daylight at TLE epoch
Visualization TLE readout
Latitude-75.84594°
Longitude-117.35692°
Altitude1,063.067 km
Speed7.325 km/s
Apparent Right ascension16h 13m 03s
Apparent Declination-61° 29' 18"
Sunlit
Object is in daylight
Visualization observer readout
Local Sidereal Time05:09:58
Azimuth162.713° S
Elevation-66.739°
Doppler factor1
Orbital elements
Apogee altitude1,055.916 km
Perigee altitude1,029.714 km
Semi-major axis7,420.952 km
Eccentricity0.0017654
Inclination90.2117°
RAAN22.7774°
Arg. of periapsis296.2327°
True anomaly179.01428°
Mean anomaly179.0108°
Eccentric anomaly179.01254°
Mean motion3.39511 °/min
BSTAR0.00023743
Orbital period106.03 mins
Loading maneuver chart data...
Loading historical data...
Loading historical data...
Loading historical data...
Loading historical data...
Loading historical data...
Loading historical data...
Loading historical data...

OPS 0100 (TRANSIT 15) Visibility forecast

Observer location: undefined°, undefined

Span
Click to sort rows by Start time (UTC) header in descending order
Start Az.
Max El. time (UTC)
Max El. Az.
Max El.
End time (UTC)
End Az.
4 mins2024-12-22 12:33:16.855Z57.57° ENE2024-12-22 12:35:16.855Z76.042° E11.752°2024-12-22 12:37:16.855Z94.352° ESE
11 mins2024-12-22 14:17:16.855Z4.668° NNE2024-12-22 14:22:16.855Z146.368° SSE44.671°2024-12-22 14:28:16.855Z181.877° SSW
4 mins2024-12-22 16:05:16.855Z307.106° NW2024-12-22 16:07:16.855Z286.959° WNW14.279°2024-12-22 16:09:16.855Z267.547° W
11 mins2024-12-23 02:10:16.855Z170.442° S2024-12-23 02:15:16.855Z115.959° SE44.474°2024-12-23 02:21:16.855Z0.184° NNE
5 mins2024-12-23 04:00:16.855Z264.309° W2024-12-23 04:02:16.855Z284.645° WNW14.558°2024-12-23 04:05:16.855Z313.362° NW
|